Flag for Russia Weather past 2 weeks in Khabarovsk, Russia

68 °F


Feels Like: 68 °F
Forecast: 46 / 63 °F
Wind: 6 mph from East

Location: Habarovsk

Current Time: Oct 7, 2015 at 5:30:16 PM

Latest Report: Oct 7, 2015 at 5:00 PM

Visibility: 10 mi

Pressure: 30.09 "Hg

Humidity: 53%

Dew point: 50 °F

Location of KhabarovskLocation

Historic Weather in Khabarovsk — Graph


Khabarovsk temperature yesterday

Maximum temperature yesterday: 64 °F (at 3:00 PM)
Minimum temperature yesterday: 48 °F (at 12:00 AM)
Average temperature yesterday: 54 °F

Past Weeks' High & Low Weather Summary

High75 °F (Sep 23, 2:30 PM)100% (Sep 24, 8:30 AM)30.18 "Hg (Sep 24, 8:30 AM)
Low36 °F (Oct 4, 4:00 AM)27% (Sep 30, 3:00 PM)28.85 "Hg (Oct 2, 5:00 AM)
Average51 °F77%29.81 "Hg
* Reported Sep 22 4:00 PM — Oct 7 4:30 PM, Khabarovsk, Weather by CustomWeather, © 2015

Note: Actual official high and low records may vary slightly from our data, if they occured in-between our weather recording intervals... More about our weather records


Khabarovsk weather history for previous 24 hours

Time TempWeatherWind HumidityBarometerVisibility
4:30 PM
Wed, Oct 7
68 °FSunny.6 mph53%30.09 "Hg10 mi
4:00 PM68 °FSunny.3 mph53%30.12 "Hg10 mi
3:30 PM68 °FSunny.3 mph53%30.12 "Hg10 mi
3:00 PM68 °FSunny.3 mph53%30.12 "Hg10 mi
2:30 PM68 °FSunny.6 mph56%30.12 "Hg10 mi
2:00 PM68 °FSunny.1 mph56%30.12 "Hg10 mi
1:30 PM66 °FSunny.3 mph60%30.12 "Hg10 mi
1:00 PM66 °FPassing clouds.3 mph60%30.15 "HgN/A
12:30 PM64 °FPassing clouds.3 mph64%30.15 "HgN/A
12:00 PM63 °FPassing clouds.3 mph68%30.15 "HgN/A
11:30 AM61 °FPassing clouds.3 mph77%30.18 "HgN/A
11:00 AM59 °FPassing clouds.3 mph77%30.18 "HgN/A
10:30 AM55 °FSunny.1 mph88%30.18 "Hg10 mi
10:00 AM52 °FScattered clouds.3 mph94%30.18 "HgN/A
9:30 AM48 °FPartly sunny.3 mph100%30.18 "Hg4 mi
9:00 AM48 °FFog.3 mph94%30.18 "Hg2 mi
8:30 AM46 °FCool.3 mph93%30.18 "Hg1 mi
8:00 AM45 °FQuite cool.3 mph93%30.18 "Hg0 mi
7:30 AM45 °FQuite cool.1 mph93%30.15 "Hg0 mi
7:00 AM43 °FQuite cool.1 mph100%30.15 "Hg0 mi
6:30 AM45 °FQuite cool.3 mph93%30.15 "Hg0 mi
6:00 AM45 °FQuite cool.1 mph100%30.15 "Hg0 mi
5:30 AM46 °FCool.1 mph93%30.15 "Hg0 mi
5:00 AM46 °FFog.1 mph93%30.12 "Hg0 mi
4:30 AM46 °FCool.1 mph100%30.12 "Hg0 mi
4:00 AM46 °FCool.1 mph100%30.12 "Hg0 mi
3:30 AM48 °FFog.3 mph94%30.12 "Hg0 mi
3:00 AM48 °FFog.3 mph94%30.12 "Hg2 mi
2:30 AM48 °FFog.6 mph100%30.12 "Hg2 mi
2:00 AM46 °FPassing clouds.3 mph93%30.09 "Hg4 mi
1:30 AM48 °FPassing clouds.3 mph94%30.09 "Hg4 mi
1:00 AM48 °FFog.3 mph100%30.09 "Hg3 mi
12:30 AM48 °FFog.3 mph100%30.09 "Hg3 mi
12:00 AM48 °FFog.3 mph94%30.09 "HgN/A
11:30 PM
Tue, Oct 6
48 °FFog.1 mph94%30.09 "HgN/A
11:00 PM48 °FClear.No wind87%30.09 "Hg10 mi
10:30 PM52 °FClear.No wind88%30.07 "Hg10 mi
10:00 PM52 °FClear.1 mph88%30.07 "Hg10 mi
9:30 PM54 °FPassing clouds.3 mph88%30.07 "HgN/A
9:00 PM52 °FPassing clouds.1 mph88%30.07 "HgN/A
8:30 PM54 °FPassing clouds.No wind82%30.07 "HgN/A
8:00 PM55 °FPassing clouds.3 mph82%30.04 "HgN/A
7:30 PM55 °FPassing clouds.1 mph82%30.04 "HgN/A
7:00 PM57 °FPassing clouds.1 mph77%30.04 "HgN/A
6:30 PM59 °FPassing clouds.1 mph72%30.04 "HgN/A
6:00 PM61 °FPassing clouds.3 mph68%30.04 "HgN/A
5:30 PM61 °FPassing clouds.6 mph68%30.01 "HgN/A
5:00 PM63 °FSunny.6 mph59%30.01 "Hg10 mi
Weather by CustomWeather, © 2015

See weather overviewHow to use our weather pages